Location: Rancho Del Sol Observatory
(38.7214°N, 120.6350°W)
Time: 02:03:34
(UTC-07:00)

Cosmos 2221 Rocket - Visible Passes

Search period start: 25 May 2016 00:00
Search period end: 04 June 2016 00:00
Orbit: 620 x 649 km, 82.5° (Epoch: 25 May)

Date Brightness Start Highest point End Pass type
(mag) Time Alt. Az. Time Alt. Az. Time Alt. Az.
25 May 5.2 03:35:24 10° NNE 03:39:29 33° ENE 03:43:33 10° SE visible
26 May 3.8 03:57:20 10° N 04:01:51 72° E 04:06:21 10° SSE visible
27 May 6.4 02:43:22 10° NE 02:45:34 13° ENE 02:47:47 10° E visible
27 May 3.8 04:19:42 10° NNW 04:24:04 51° W 04:28:02 12° SSW visible
28 May 5.5 03:04:16 10° NNE 03:08:08 27° ENE 03:11:59 10° SE visible
28 May 4.8 04:42:33 10° NW 04:46:10 24° W 04:49:29 11° SW visible
29 May 4.1 03:26:04 10° N 03:30:32 58° E 03:33:34 20° SSE visible
29 May 5.6 05:06:43 10° WNW 05:08:08 11° W 05:09:34 10° WSW visible
30 May 6.5 02:13:02 10° NE 02:14:09 11° ENE 02:15:17 10° E visible
30 May 3.6 03:48:19 10° NNW 03:52:47 65° W 03:55:10 27° SSW visible
31 May 5.7 02:33:12 10° NNE 02:36:45 22° ENE 02:39:21 14° ESE visible
31 May 4.6 04:11:00 10° NNW 04:14:56 29° W 04:16:48 22° SW visible
01 Jun 4.5 02:54:50 10° N 02:59:12 46° E 03:01:02 30° SE visible
01 Jun 5.5 04:34:32 10° NW 04:36:56 14° W 04:38:30 12° WSW visible
02 Jun 3.5 03:16:58 10° N 03:21:30 81° W 03:22:47 47° S visible
03 Jun 5.9 02:02:12 10° NNE 02:05:22 18° ENE 02:07:05 15° E visible
03 Jun 4.3 03:39:30 10° NNW 03:43:40 36° W 03:44:32 33° WSW visible
